Simultaneous Nadir Overpasses (SNOs) Predictions

Prediction of SNOs between GOES-14 and AQUA Satellite Orbit:

Table of predicted SNOs for the next 14.0 days since TLE Epoch: 11/2/2024
Index Date Time (GOES-14) GOES-14 Lat,Lon AQUA Lat,Lon Distance(km) Time Diff (sec)
1 11/02/2024 21:24:29 0.04,-108.56 0.52,-106.21 266.54 80
2 11/03/2024 09:46:50 -0.02,-108.63 0.47,-110.98 266.99 80
3 11/05/2024 09:25:56 -0.03,-108.62 -0.49,-106.51 240.24 80
4 11/05/2024 21:48:24 0.01,-108.55 -0.58,-111.30 313.21 80
5 11/07/2024 21:27:26 0.02,-108.54 0.39,-106.82 195.18 80
6 11/08/2024 09:49:46 -0.01,-108.61 0.63,-111.58 337.51 80
7 11/10/2024 09:28:45 -0.02,-108.61 -0.35,-107.09 172.14 80
8 11/10/2024 21:51:12 0.01,-108.53 -0.74,-111.87 380.74 80
9 11/12/2024 21:30:08 0.01,-108.52 0.25,-107.37 130.73 80
10 11/13/2024 09:52:27 0.00,-108.60 0.75,-112.12 400.99 80
11 11/15/2024 09:31:19 -0.00,-108.59 -0.18,-107.60 111.55 80
12 11/15/2024 21:53:45 -0.02,-108.51 -0.86,-112.38 440.79 80
